Location: Newark
(35.2672°N, 80.7344°W)
Time: 21:33:32
(UTC+00:00)

Tiros 1 - Pass Details

Date: 28 January 2020
Orbit: 631 x 664 km, 48.4° (Epoch: 19 February)

Event Time Altitude Azimuth Distance (km) Brightness Sun altitude
Rises 22:12:32 0° 310° (NW) 2,967 10.9 5.5°
Reaches altitude 10° 22:14:57 10° 316° (NW) 2,060 10.0 5.1°
Maximum altitude 22:19:32 46° 30° (NNE) 879 7.6 4.2°
Drops below altitude 10° 22:24:08 10° 104° (ESE) 2,069 9.3 3.4°
Sets 22:26:34 0° 111° (ESE) 2,982 10.1 2.9°
